CAPE
0 0 0 0 0 0 0 0 0 0 0 0 0 0 0 0 0 0 0 0 0 0 0 0 0 0 0 0 0 2 26 1079 1356 1545 1426 1170 1196 1119 1017 1168 1128 1081 1001
0 0 0 0 0 0 0 0 0 0 0 0 0 0 0 0 0 0 0 0 0 3 0 0 0 0 0 0 0 1 3 14 735 1207 1436 1207 1066 1058 947 930 982 976 949
0 0 0 0 0 0 0 0 0 0 0 0 0 0 0 0 0 0 0 0 0 0 26 9 1 1 8 10 0 0 0 0 9 606 1104 1299 1086 950 885 845 825 841 890
0 0 0 0 0 0 0 0 0 0 0 0 0 0 0 0 0 0 0 0 0 0 2 0 0 0 0 4 25 21 0 5 1 79 635 914 1212 1010 804 800 767 772 754
0 0 0 0 0 0 0 0 0 0 0 0 0 0 0 0 0 0 0 0 0 0 0 0 0 0 3 8 14 39 43 1 10 5 210 846 884 1090 838 724 727 685 649
0 0 0 0 0 0 0 0 0 0 0 0 0 0 0 0 0 0 0 0 0 0 0 0 0 0 2 17 30 62 64 17 1 5 28 729 1043 845 884 674 679 622 595
0 0 0 0 0 0 0 0 0 0 0 0 0 0 0 0 0 0 0 0 0 0 0 0 0 0 3 10 17 29 36 41 32 6 0 430 1056 752 313 614 567 525 513
0 0 0 0 0 0 0 0 0 0 0 0 0 0 0 0 0 0 0 0 0 0 0 0 0 1 8 9 9 23 20 18 19 48 79 36 762 862 729 773 542 475 445
0 0 0 0 0 0 0 0 0 0 0 0 0 0 1 0 2 0 0 0 0 0 0 0 0 11 4 11 11 10 19 10 14 6 214 480 775 949 859 724 294 454 441
0 0 0 0 0 0 0 0 0 0 0 0 0 1 1 3 9 3 0 0 0 0 0 2 0 15 8 10 14 18 17 7 1 2 4 217 523 729 927 811 630 686 542
0 0 0 0 0 0 0 0 0 0 0 0 0 2 0 2 0 7 3 1 0 0 0 4 29 8 11 13 13 17 17 9 5 21 58 130 583 495 727 862 766 707 615
0 0 0 0 0 0 0 0 0 0 0 0 0 0 8 8 7 12 8 5 5 0 0 38 28 17 11 13 23 16 15 15 13 15 10 10 54 304 556 515 683 666 531
0 0 0 0 0 0 0 0 0 0 0 0 0 1 7 7 11 10 12 5 7 0 2 25 31 23 22 12 17 22 25 21 18 18 21 13 14 9 8 54 559 530 500
0 0 0 0 0 0 0 0 0 0 0 0 0 0 4 6 6 10 12 15 7 6 1 14 12 8 18 21 20 20 15 20 16 25 22 24 24 10 12 7 5 44 165
0 0 0 0 0 0 0 0 0 0 0 0 0 0 2 1 8 10 12 18 28 16 6 23 17 13 9 16 16 12 14 41 24 26 28 27 27 24 24 18 15 8 5
0 0 0 0 0 0 0 0 0 0 0 0 0 0 0 3 3 7 4 13 15 17 10 34 22 20 14 16 15 8 11 22 38 23 25 25 29 29 24 22 21 20 13
0 0 0 0 0 0 0 0 0 0 0 0 0 0 0 1 1 4 3 6 16 9 13 20 21 16 18 6 4 4 16 2 10 35 27 26 26 25 23 23 18 21 21
0 0 0 0 0 0 0 0 0 0 0 0 0 0 0 1 0 3 2 3 4 16 19 9 7 20 6 15 4 2 6 16 4 20 23 29 23 26 23 25 24 18 16
0 0 0 0 0 0 0 0 0 0 0 0 0 0 0 0 0 0 1 1 2 8 17 7 9 10 13 8 12 5 3 5 5 0 7 18 22 27 32 25 21 22 24
0 0 0 0 0 0 0 0 0 0 0 0 0 0 0 0 0 0 0 0 0 1 1 4 5 2 5 10 12 8 2 1 2 1 0 1 3 11 17 22 20 25 18
0 0 0 0 0 0 0 0 0 0 0 0 0 0 0 0 0 0 0 0 0 0 0 0 2 0 0 0 3 4 2 1 1 3 1 0 0 0 1 5 20 23 20
0 0 0 0 0 0 0 0 0 0 0 0 0 0 0 0 0 0 1 2 0 0 0 0 0 0 0 0 0 0 0 0 4 0 0 2 0 0 0 1 9 16 18
0 0 0 0 0 0 0 0 1 0 0 0 0 0 0 0 0 0 0 0 1 1 0 0 0 0 0 0 0 0 0 0 0 0 0 0 3 0 0 1 9 8 10
0 0 0 0 0 0 0 2 1 1 0 0 0 0 0 0 0 0 0 0 0 0 0 0 0 0 0 0 0 0 0 0 0 0 0 0 2 1 0 0 13 12 10
0 0 0 0 0 0 0 0 0 0 0 0 0 0 0 0 0 1 0 0 0 0 1 3 3 2 1 1 0 0 0 0 0 0 0 0 0 2 0 0 0 7 17
0 0 2 3 1 0 0 0 0 1 0 0 0 0 0 0 0 0 0 0 0 0 0 0 0 0 0 0 0 0 0 0 0 0 0 0 0 0 0 0 0 0 0
CIN
0 0 0 0 0 0 0 0 0 0 0 0 0 0 0 0 0 0 0 0 0 0 0 0 0 0 0 0 0 0 -78 0 0 -7 -13 -23 -24 -25 -32 -20 -12 -14 -6
0 0 0 0 0 0 0 0 0 0 0 0 0 0 0 0 0 0 0 0 0 -2 0 0 0 0 0 0 0 0 0 0 -3 0 -3 -15 -29 -29 -35 -38 -27 -16 -8
0 0 0 0 0 0 0 0 0 0 0 0 0 0 0 0 0 0 0 0 0 -1 -8 -6 0 0 0 0 0 0 0 0 -3 -5 0 -2 -22 -41 -40 -43 -48 -29 -22
0 0 0 0 0 0 0 0 0 0 0 0 0 0 0 0 0 0 0 0 0 -5 -11 0 0 0 0 0 0 0 0 0 0 -69 -1 0 -2 -24 -55 -47 -46 -56 -23
0 0 0 0 0 0 0 0 0 0 0 0 0 0 0 0 0 0 0 0 0 0 0 0 0 0 0 0 0 0 0 0 0 0 -36 0 -5 -5 -35 -52 -48 -49 -44
0 0 0 0 0 0 0 0 0 0 0 0 0 0 0 0 0 0 0 0 0 0 0 0 0 0 0 0 0 0 0 0 0 0 -15 0 -1 -8 -7 -28 -55 -63 -52
0 0 0 0 0 0 0 0 0 0 0 0 0 0 0 0 0 0 0 0 0 0 0 0 0 0 0 -2 0 0 0 -3 0 0 0 0 -1 -8 -183 -8 -18 -42 -55
0 0 0 0 0 0 0 0 0 0 0 0 0 0 0 0 0 0 0 0 0 0 0 0 0 0 0 0 0 0 0 0 0 -2 -4 -1 -1 -4 -3 -1 -3 -16 -57
0 0 0 0 0 0 0 0 0 0 0 0 0 0 0 0 0 0 0 0 0 0 0 0 0 0 0 0 0 0 0 0 0 0 -6 -2 -1 -1 -7 -1 -9 -1 -38
0 0 0 0 0 0 0 0 0 0 0 0 0 -1 -1 0 0 0 0 0 0 0 0 -3 0 0 0 0 0 0 0 0 0 0 0 -19 -5 0 -2 0 -1 0 -2
0 0 0 0 0 0 0 0 0 0 0 0 0 0 0 0 0 0 0 0 0 0 0 -3 0 0 0 0 0 0 0 0 0 -81 -31 -24 0 0 -1 -9 -9 -9 0
0 0 0 0 0 0 0 0 0 0 0 0 0 0 0 0 0 0 0 0 0 0 0 -1 0 0 0 0 0 0 0 0 0 0 0 0 -22 -4 0 -8 -8 -7 -21
0 0 0 0 0 0 0 0 0 0 0 0 0 0 0 0 0 0 0 0 0 0 -2 0 0 0 0 0 0 0 0 0 0 0 0 0 0 0 0 -29 0 -2 -5
0 0 0 0 0 0 0 0 0 0 0 0 0 0 0 0 0 0 0 0 0 0 -1 0 0 0 0 0 0 0 0 0 0 0 0 0 0 0 0 0 -5 -122 -44
0 0 0 0 0 0 0 0 0 0 0 0 0 0 0 0 0 0 0 0 0 0 0 0 0 0 0 0 0 0 0 0 0 0 0 0 0 0 0 0 0 0 0
0 0 0 0 0 0 0 0 0 0 0 0 0 0 0 0 0 0 0 0 0 0 0 0 0 0 0 0 0 0 0 0 0 0 0 0 0 0 0 0 0 0 0
0 0 0 0 0 0 0 0 0 0 0 0 0 0 0 -1 0 0 0 0 0 0 0 0 0 0 0 0 0 0 0 0 0 0 0 0 0 0 0 0 0 0 0
0 0 0 0 0 0 0 0 0 0 0 0 0 0 0 0 0 0 0 0 0 0 0 0 0 0 0 0 0 0 0 0 0 0 0 0 0 0 0 0 0 0 0
0 0 0 0 0 0 0 0 0 0 0 0 0 0 0 0 0 0 0 0 0 0 0 0 0 0 0 0 0 0 0 0 0 0 0 0 0 0 0 0 0 0 0
0 0 0 0 0 0 0 0 0 0 0 0 0 0 0 0 0 0 0 0 0 -1 -1 0 0 0 0 0 0 0 0 0 0 0 0 0 0 0 0 0 0 0 0
0 0 0 0 0 0 0 0 0 0 0 0 0 0 0 0 0 0 0 0 0 0 0 0 0 -1 0 0 0 0 0 0 0 0 0 0 0 0 0 0 0 0 0
0 0 0 0 0 0 0 0 0 0 0 0 0 0 0 0 0 0 0 0 0 0 0 0 0 0 0 0 0 0 0 0 0 0 0 0 0 0 0 -1 0 0 0
0 0 0 0 0 0 0 0 0 0 0 0 0 0 0 0 0 0 0 0 0 0 0 0 0 0 -1 0 0 0 0 0 0 0 0 0 -1 0 0 -1 0 0 0
0 0 0 0 0 0 0 0 0 -3 0 0 0 0 0 0 0 0 0 0 0 0 0 0 0 0 0 0 0 0 0 0 0 0 0 0 -6 0 0 0 0 0 0
-1 0 -1 0 0 0 0 0 -3 -3 0 0 0 0 0 0 0 0 0 0 0 0 0 0 0 0 0 0 0 0 0 0 0 0 0 0 0 -1 0 0 0 0 0
0 0 -3 -4 -1 0 0 0 0 -1 0 0 0 0 0 0 0 0 0 0 0 0 0 0 0 0 0 0 0 0 0 0 0 0 0 0 0 0 0 0 0 0 0
Wind_Speed
4 4 3 4 4 4 4 4 4 4 5 6 5 5 6 6 6 4 3 14 15 19 22 22 22 22 23 24 24 24 24 21 24 23 23 23 23 23 24 22 21 21 22
3 3 4 4 5 4 4 4 5 5 5 5 6 6 6 6 6 6 4 5 13 15 16 18 19 21 23 23 24 24 25 24 22 25 25 24 25 25 24 24 24 23 22
3 3 4 5 5 4 5 5 5 6 6 6 7 7 7 9 8 7 5 5 6 9 12 19 23 24 26 27 26 25 24 26 25 23 25 25 26 27 26 26 25 24 24
4 4 5 6 4 4 4 5 5 5 5 6 6 6 7 7 7 9 7 5 3 3 6 20 25 30 28 27 27 28 28 26 27 26 24 27 27 27 28 27 27 28 26
4 4 5 5 5 4 5 5 6 5 7 6 9 9 6 7 8 7 7 7 8 6 6 15 21 25 28 29 30 30 31 29 29 28 28 25 29 29 29 30 29 28 28
5 5 5 5 4 4 5 5 6 6 6 8 10 8 10 6 4 9 8 6 8 8 9 12 11 12 27 27 28 31 30 30 30 30 29 27 26 30 30 30 32 32 30
5 6 4 4 5 5 5 6 6 8 5 9 5 6 5 7 9 11 7 8 12 12 7 9 8 9 10 25 25 29 30 30 29 29 29 29 24 25 27 29 31 31 31
5 7 5 5 5 4 6 6 7 4 4 7 7 5 6 5 12 9 8 8 12 11 12 12 13 14 11 10 17 26 30 30 26 23 26 29 26 20 24 30 29 30 31
6 6 6 5 5 4 5 5 5 7 5 5 7 4 5 4 11 4 9 10 13 12 12 12 13 12 12 11 15 19 31 28 25 23 21 20 19 19 21 26 24 25 29
7 6 5 5 5 4 5 5 5 3 4 5 4 7 5 5 5 8 5 10 14 13 13 10 10 9 11 10 18 25 31 29 25 17 20 22 19 19 17 22 25 26 24
6 6 5 5 5 4 5 5 4 4 4 4 4 5 5 4 4 5 10 13 10 10 9 10 7 8 10 11 11 20 33 32 29 23 15 15 19 19 15 17 20 23 21
5 5 5 4 5 5 4 3 3 5 6 4 4 5 4 3 6 5 8 12 13 10 11 5 7 7 9 10 17 26 35 33 32 29 26 22 12 11 11 10 15 20 20
4 5 4 5 4 4 4 3 3 5 3 4 5 5 3 4 4 5 6 8 9 10 5 3 7 7 8 9 13 25 34 34 33 33 30 30 27 26 24 11 7 16 18
6 6 5 5 4 5 3 3 4 3 4 3 6 5 4 4 5 5 5 8 9 5 7 9 4 9 8 9 18 26 17 32 34 34 33 31 31 33 29 31 24 14 4
6 5 5 6 5 4 4 4 5 4 4 4 5 4 5 6 5 5 5 5 5 5 6 4 5 9 8 9 16 13 15 32 33 34 33 34 33 33 33 33 31 27 20
6 5 6 6 4 5 5 5 5 4 5 4 4 5 6 6 6 5 6 5 5 4 4 5 5 5 8 8 12 12 16 21 34 33 34 34 36 34 34 35 34 32 31
6 6 6 5 5 5 4 4 5 5 5 5 6 7 8 8 6 6 6 6 4 4 4 1 4 6 6 8 9 10 10 12 12 30 33 36 35 34 35 34 34 34 33
6 6 5 6 5 4 5 5 6 5 5 6 7 8 8 7 8 8 6 9 6 3 3 3 4 4 6 5 8 9 9 8 10 23 30 34 35 32 33 34 33 32 32
6 6 6 6 5 4 5 5 6 5 6 6 6 7 8 8 9 8 8 8 7 6 3 2 3 2 3 4 4 6 8 7 8 22 24 27 27 28 33 32 32 32 30
8 7 7 6 5 5 5 4 5 5 6 5 6 6 5 6 6 8 8 9 9 5 6 5 5 5 6 5 2 2 3 5 6 10 16 18 21 26 26 31 31 32 29
7 8 9 8 9 7 5 5 6 5 5 6 6 6 5 7 15 15 7 9 10 7 6 7 6 6 6 5 8 6 1 2 5 6 6 8 8 10 14 22 25 29 29
8 3 7 9 10 6 8 12 8 6 7 6 5 6 5 9 9 14 17 19 16 9 9 7 6 6 8 8 8 4 6 4 3 7 4 6 7 10 10 11 27 26 27
7 7 9 10 8 4 11 10 12 6 5 5 6 6 6 6 9 5 11 14 16 18 16 8 8 7 6 8 9 5 3 5 4 6 4 5 6 7 7 11 23 24 23
7 7 7 8 8 5 10 11 11 6 6 6 5 4 4 4 5 6 5 4 4 3 4 4 3 2 6 8 8 7 4 6 5 6 9 4 3 6 6 6 21 21 22
6 7 6 7 8 5 8 4 3 6 6 6 4 4 4 4 8 7 3 4 4 4 6 11 12 15 16 20 18 7 9 5 3 3 9 4 3 2 4 3 6 19 20
7 6 6 6 10 5 6 3 1 4 6 6 7 6 11 7 11 9 5 3 3 2 3 5 4 6 8 11 19 11 7 7 4 4 4 5 4 2 3 3 2 3 6
Wind_Direction
22 56 49 44 48 4 16 343 13 333 338 327 323 308 312 302 297 296 299 298 302 314 311 309 304 298 294 292 293 291 290 281 255 235 226 218 214 213 209 205 203 198 200
24 37 52 45 42 2 350 352 356 351 329 342 328 323 316 306 299 297 299 305 297 290 293 300 305 305 300 294 287 286 288 283 280 255 236 223 216 212 210 205 205 205 199
26 19 56 51 27 336 1 11 1 351 347 335 320 332 329 325 309 292 285 275 282 303 349 359 358 346 333 318 294 283 276 279 277 271 252 234 221 215 210 206 203 203 201
21 41 56 56 338 358 25 12 8 348 338 323 335 329 310 301 313 328 289 273 298 322 8 5 351 345 327 319 306 292 279 273 270 267 261 248 229 218 212 206 202 201 204
45 29 72 58 330 15 32 13 0 353 331 342 329 315 313 309 287 284 313 12 344 24 21 7 350 337 333 323 316 305 291 270 266 264 261 255 242 223 214 206 202 202 202
51 21 71 58 1 35 25 17 359 354 322 353 321 316 308 281 315 18 342 340 24 31 19 10 341 330 332 329 326 331 301 271 263 259 260 257 250 238 220 212 204 201 201
47 49 40 52 26 28 38 15 15 347 351 2 338 322 301 328 47 353 345 19 6 6 21 1 332 327 320 334 336 333 331 337 280 254 255 259 253 249 227 219 215 204 200
56 77 45 44 34 8 45 20 26 344 351 26 347 311 349 313 11 331 359 19 354 357 343 351 340 334 343 332 335 343 340 330 317 303 263 253 257 241 234 224 219 214 203
76 62 58 47 28 34 45 31 28 14 353 13 18 24 346 336 336 337 331 3 358 347 337 335 335 328 349 340 346 348 345 336 319 296 289 274 273 257 225 218 210 223 213
77 67 60 53 49 41 48 29 27 14 17 13 4 24 11 331 335 318 350 323 350 330 328 330 323 347 358 350 357 356 354 350 340 300 289 288 265 262 244 218 219 223 222
95 84 69 64 57 52 49 60 5 34 58 40 26 359 2 325 302 326 312 327 325 322 329 323 11 360 2 5 2 4 6 4 2 6 334 295 281 264 266 230 211 211 217
127 86 89 75 72 47 42 30 14 44 73 67 36 8 4 345 322 324 308 314 318 327 319 359 14 15 15 8 9 14 16 14 12 23 26 24 12 337 266 273 213 218 209
117 96 78 62 57 63 38 10 57 45 55 91 82 14 343 335 328 314 302 305 314 318 329 23 20 15 23 19 14 21 23 21 21 26 28 35 39 42 42 32 224 227 197
96 98 94 88 66 56 32 327 71 23 26 49 84 29 355 354 337 313 304 314 317 328 335 336 17 11 24 26 27 23 16 27 27 30 30 38 40 45 48 46 43 64 75
110 110 98 94 79 66 37 355 80 24 20 26 72 43 17 2 337 332 323 305 310 318 325 17 4 11 357 41 35 29 26 28 33 35 33 39 43 45 48 50 48 46 59
95 115 99 90 91 69 43 44 65 32 36 23 51 27 38 6 350 351 336 314 311 319 296 10 23 8 11 26 21 35 30 25 33 36 36 39 43 44 50 50 49 46 47
125 110 117 118 96 91 68 69 89 57 45 46 43 33 28 22 1 349 342 337 329 326 300 73 28 15 29 30 24 18 34 27 23 37 38 40 40 41 46 51 52 49 48
116 116 123 108 106 106 95 79 70 70 52 51 47 40 30 16 12 357 352 346 341 330 310 24 22 13 25 44 34 31 24 38 37 33 43 39 41 38 45 47 50 56 52
128 125 97 92 103 104 89 94 97 81 71 52 66 57 39 20 17 4 3 352 341 360 359 27 36 360 48 3 53 39 27 25 38 44 39 43 41 42 42 48 47 47 54
142 124 127 127 120 75 90 83 83 100 98 80 86 68 67 36 29 18 16 0 346 13 21 30 32 15 5 1 1 9 41 32 37 43 53 47 46 44 47 46 47 46 47
133 151 157 146 116 86 38 3 78 77 71 82 70 81 56 61 55 48 38 18 10 23 24 34 28 27 11 354 6 350 360 126 59 30 51 47 42 41 39 44 45 45 43
71 62 97 84 75 82 77 52 88 61 40 57 63 62 54 25 76 60 53 47 45 33 41 40 28 22 6 350 337 7 8 7 30 21 342 81 54 49 42 42 50 50 51
108 91 90 93 94 99 92 85 87 78 76 60 48 41 48 27 13 51 62 56 49 54 55 52 51 29 4 348 329 329 47 58 52 360 339 34 64 66 46 50 48 51 53
132 120 123 126 117 107 111 110 106 98 80 63 52 64 67 16 19 36 46 59 69 52 69 70 66 36 21 0 353 333 1 123 72 38 5 54 12 71 54 32 50 46 48
145 140 145 133 124 121 142 135 139 122 114 104 72 67 58 28 38 69 78 52 14 357 37 54 57 51 39 33 31 16 17 22 81 6 19 334 341 98 77 28 38 45 40
134 127 134 127 136 131 163 180 354 153 147 140 136 94 63 62 55 52 26 30 46 329 15 21 10 20 50 34 38 36 18 48 19 16 345 350 342 317 155 53 38 49 22